Dewpoint
51 52 54 54 52 51 51 49 48 48 48 48 47 47 46 47 47 46 46 46 47 47 48 49 50 49 48 49 50 48 50 43 43 41 39 39 39 44 47 53 56 57 58 49 36 29 28 23 22 28 28 29 30 25 30 32 25 27 23 21 18 14 9 11 9 9 11 9 10 12 13 12 46 59 61 61 61 61 62 62 63 63 61 63 64 65 65 66
49 50 51 53 54 53 52 51 49 48 49 48 48 47 47 47 47 47 46 46 46 47 47 48 50 50 49 48 48 49 46 42 38 37 37 42 45 50 51 51 53 58 47 34 25 27 26 20 24 29 28 24 26 26 32 31 30 26 27 24 14 14 12 15 11 11 10 10 12 14 15 13 25 58 59 58 59 60 60 62 62 62 63 65 66 65 65 66
48 49 50 51 52 53 53 52 51 50 49 49 48 48 48 47 47 46 46 46 46 46 47 47 48 48 48 48 48 50 43 36 36 32 32 48 53 52 52 52 53 52 32 32 31 28 27 23 23 28 27 25 25 25 30 26 30 28 26 20 20 18 15 15 14 14 13 14 16 17 14 13 16 42 59 58 58 59 59 61 61 61 62 64 65 65 65 65
49 48 49 50 50 52 52 53 52 51 51 50 49 48 48 47 47 46 45 46 46 47 47 47 47 47 46 47 50 45 39 39 27 27 36 52 57 59 59 57 54 50 37 37 35 31 24 23 24 27 24 24 24 26 24 26 29 27 26 21 22 22 20 21 18 19 19 18 17 15 14 13 12 32 58 59 57 57 60 61 61 61 63 64 64 65 65 65
48 48 48 48 49 50 51 51 52 53 51 50 50 50 48 48 47 46 45 45 46 46 48 49 48 47 48 48 49 43 39 16 8 31 41 54 52 54 58 61 58 47 34 36 29 27 19 20 23 20 25 23 22 25 23 27 28 26 25 27 25 19 20 21 19 18 17 19 15 14 14 14 22 54 59 59 55 55 58 60 62 63 63 64 64 64 65 65
48 47 48 48 48 49 50 50 51 52 52 51 50 50 50 48 48 47 45 46 47 46 46 46 47 47 47 48 43 42 31 -4 20 37 49 52 50 51 61 63 60 46 36 30 24 24 25 12 21 20 20 22 23 21 22 26 24 19 23 24 27 25 25 24 21 19 17 16 16 16 15 14 51 57 59 58 56 56 59 62 63 63 65 65 64 65 65 65
47 47 47 47 47 47 49 49 50 50 52 52 52 50 50 50 48 47 46 47 47 47 46 46 46 47 48 48 43 41 34 32 35 32 50 52 47 49 61 63 59 43 33 29 23 23 25 12 17 17 19 20 19 22 22 24 23 22 20 22 22 22 25 23 21 20 18 17 17 16 15 12 49 56 60 60 60 62 61 63 64 63 64 64 64 65 65 65
46 46 46 46 47 47 47 48 49 49 50 51 53 52 52 50 49 47 47 47 47 47 46 46 47 48 49 42 38 35 36 32 34 36 47 49 37 34 54 54 48 39 29 22 20 21 20 12 12 17 18 13 18 21 21 22 22 23 22 23 23 22 21 21 20 19 18 17 16 14 23 42 37 54 60 59 62 63 63 64 64 64 64 64 64 65 65 65
46 46 46 47 47 47 47 47 48 49 49 49 51 52 52 50 50 48 47 47 47 46 47 48 48 48 48 41 38 34 27 34 36 38 36 33 33 27 40 47 43 34 26 23 17 16 20 17 12 16 10 16 19 21 21 21 20 21 22 20 20 20 20 19 18 18 17 15 14 39 58 59 55 62 60 61 62 64 64 63 63 64 64 64 64 65 65 65
45 46 46 46 47 47 47 47 47 48 49 48 49 51 52 51 50 49 47 47 47 46 46 46 48 49 45 39 36 27 25 32 39 38 36 34 33 28 25 42 42 34 25 24 14 12 19 17 13 15 17 17 20 19 19 19 17 21 20 21 21 21 20 17 15 15 15 12 16 29 58 57 51 53 56 63 63 64 63 63 63 63 63 64 64 65 65 64
45 45 46 46 46 47 47 47 47 47 48 49 48 50 52 52 51 50 48 47 46 47 47 47 47 48 42 39 34 27 31 38 40 38 36 35 32 28 25 24 33 33 26 24 17 12 15 14 14 17 15 15 18 16 19 18 19 19 18 16 16 15 11 14 11 11 10 9 13 22 58 54 33 56 52 62 65 64 62 62 63 63 64 64 64 65 65 64
44 44 45 46 46 46 46 47 47 47 48 48 48 49 52 52 51 50 49 47 47 46 47 47 48 46 43 41 38 34 36 37 38 37 37 36 33 31 30 26 28 32 25 22 21 12 9 10 16 16 10 17 16 13 14 16 8 8 10 10 11 9 11 10 9 9 12 7 14 43 54 51 39 49 57 62 64 63 62 62 62 63 63 61 60 61 63 63
44 44 44 45 45 45 46 46 46 46 47 48 48 48 50 52 51 51 50 47 47 47 47 47 47 44 40 34 36 39 39 39 39 38 37 36 34 33 30 27 25 27 25 22 22 15 11 12 14 15 10 14 13 11 12 9 8 10 7 8 10 12 11 13 10 10 10 8 18 42 26 34 36 48 61 63 63 63 62 62 62 61 61 60 59 59 61 61
44 44 44 44 44 45 45 46 45 46 46 47 47 47 49 51 52 51 50 48 47 46 46 47 47 44 42 36 35 37 37 37 38 39 38 36 30 22 21 24 26 29 28 24 23 21 15 15 12 12 11 9 10 10 8 7 10 11 10 8 12 11 12 10 11 9 8 14 31 32 25 14 42 58 62 63 63 61 60 58 60 60 61 60 59 60 60 61
45 44 44 44 44 44 44 45 45 46 46 46 46 47 50 50 51 51 50 48 48 47 46 48 45 41 36 34 37 37 46 41 41 40 39 36 25 19 15 18 21 27 28 24 23 23 18 17 20 16 12 11 9 8 9 7 11 11 10 11 7 11 11 8 15 10 7 8 22 22 22 15 45 56 57 57 62 59 57 57 58 59 58 59 59 60 60 61
45 45 45 44 44 44 44 44 45 45 46 46 46 48 50 50 51 51 50 48 48 46 45 42 42 40 35 30 29 36 32 27 24 29 34 37 28 15 15 16 21 26 26 24 20 21 19 19 19 17 8 9 7 9 9 8 9 9 11 18 9 8 9 5 9 12 10 9 10 17 9 29 39 56 54 54 55 56 56 57 57 59 59 59 59 59 59 60
45 45 45 45 45 45 44 45 45 45 45 46 46 47 49 50 51 50 50 49 47 46 43 36 42 41 29 30 35 29 24 27 29 28 28 34 29 19 14 14 20 25 23 19 18 20 19 20 16 14 9 8 7 10 11 14 14 10 13 13 13 8 8 6 6 7 10 9 8 20 12 41 52 56 54 54 54 55 55 56 55 56 57 58 59 58 59 60
46 45 45 44 44 45 45 45 45 45 45 45 46 46 48 49 50 49 49 48 46 45 43 42 42 39 34 36 29 25 28 29 28 28 28 27 29 23 14 13 24 24 21 18 18 16 18 16 12 11 10 9 9 10 13 11 14 13 14 15 11 9 11 6 4 5 8 8 8 22 20 46 52 56 53 53 55 53 54 56 55 55 57 58 58 58 58 61
45 45 45 45 44 45 45 45 45 44 45 45 46 48 48 48 49 48 45 45 37 36 30 34 35 20 15 19 23 29 30 30 30 29 25 29 28 23 21 21 25 23 23 21 21 15 14 12 15 11 8 8 6 8 12 11 9 8 12 12 11 10 6 5 6 8 10 14 20 27 18 44 54 55 54 54 54 54 55 56 56 56 55 57 57 57 59 61
45 45 45 45 44 45 44 44 44 45 45 46 47 47 45 41 40 39 43 43 38 32 27 30 34 27 28 25 22 31 30 30 25 26 26 27 24 20 15 18 19 24 22 18 21 15 13 10 9 9 7 5 8 9 12 11 9 10 11 10 7 7 6 7 7 14 20 30 44 42 39 45 52 55 54 54 53 54 55 55 56 56 57 59 59 59 61 62
45 44 44 44 44 44 45 44 45 45 45 46 45 41 35 37 32 29 37 39 39 36 31 33 35 33 29 29 30 31 29 28 31 29 27 28 22 16 14 15 15 21 23 22 21 25 14 12 10 7 5 3 7 17 21 10 10 8 8 7 6 6 5 7 8 27 38 18 41 46 48 50 51 54 54 54 53 52 54 55 55 56 58 58 59 60 61 62
45 45 44 44 44 44 43 44 44 44 45 46 43 39 39 37 40 39 35 30 36 37 35 32 32 34 34 34 33 32 32 28 26 26 27 27 23 14 16 13 14 17 22 23 22 18 13 10 13 7 6 5 12 18 13 13 10 10 8 10 7 6 8 8 26 46 43 26 40 44 46 49 50 53 54 55 53 52 54 54 55 56 58 57 58 58 60 61
45 44 45 44 44 44 44 44 44 45 46 43 41 40 38 42 45 46 39 33 30 34 36 34 32 31 30 30 32 33 28 27 25 26 24 25 22 17 15 13 16 17 23 22 20 22 17 13 13 13 8 7 10 12 10 13 17 13 10 10 9 7 5 5 24 47 46 34 40 45 45 48 50 52 54 54 53 52 53 55 56 57 57 57 57 58 59 59
45 45 45 45 44 44 44 44 45 45 45 42 41 40 45 45 45 45 37 28 22 26 34 35 34 32 31 30 32 31 28 27 27 24 29 25 20 19 15 14 16 18 22 22 22 18 18 18 20 9 7 6 9 11 12 13 11 17 10 6 6 5 6 12 28 44 43 44 44 39 41 44 47 50 51 54 54 54 55 55 55 56 57 57 58 59 59 61
45 44 44 45 45 45 45 45 42 43 44 43 42 42 44 46 46 44 35 28 27 28 32 32 34 33 30 32 34 30 30 27 27 26 25 25 19 16 15 17 16 16 20 24 23 18 20 21 12 7 7 7 9 9 10 10 9 11 15 8 5 6 6 13 35 35 32 31 39 27 10 31 45 48 50 52 53 53 55 54 55 55 56 56 57 57 58 59
45 45 45 45 45 44 44 41 41 41 42 39 42 44 45 44 45 42 35 23 16 16 28 23 31 22 31 28 30 30 30 25 27 26 27 24 27 19 17 16 18 15 20 23 22 24 20 21 10 9 8 7 7 6 10 7 9 12 9 10 7 6 8 14 17 16 13 10 30 34 13 32 43 46 50 51 52 53 55 54 54 53 54 54 54 56 57 57
45 46 44 45 45 44 41 37 41 42 37 39 43 43 45 45 47 43 30 17 13 25 22 24 20 19 23 28 28 29 10 9 27 28 26 30 22 23 15 15 16 13 21 23 23 19 21 19 15 13 10 7 7 6 10 8 8 6 11 10 8 6 5 7 8 9 12 24 22 34 22 31 39 44 51 51 51 52 53 52 54 54 53 53 55 57 57 57
45 45 44 45 44 44 43 41 40 38 39 40 42 41 44 44 44 44 29 9 4 23 22 26 20 27 27 30 28 18 13 19 13 23 26 27 26 20 17 14 16 14 14 20 17 18 24 19 18 15 14 9 6 9 11 9 4 7 12 9 8 6 7 9 7 10 17 13 10 29 37 24 33 44 50 50 49 50 51 51 53 54 53 54 55 57 57 57
45 44 45 46 44 42 43 42 40 37 42 44 45 45 44 44 45 31 17 7 18 14 28 22 28 27 30 29 26 21 17 18 14 21 26 25 24 18 15 15 14 13 12 20 18 19 17 20 18 16 15 12 14 12 10 8 5 10 12 11 11 11 13 9 7 6 15 14 11 22 32 17 29 43 48 48 47 48 50 51 52 53 53 55 56 56 57 57
45 44 45 44 44 44 44 43 41 44 47 45 46 45 45 44 36 23 13 10 16 15 19 21 24 24 29 26 24 22 18 16 19 22 22 20 21 20 12 15 12 11 11 17 16 17 16 27 23 18 17 16 15 12 10 8 10 12 10 8 9 12 15 20 20 15 13 9 12 17 32 18 13 40 46 45 45 47 49 51 51 53 53 55 55 56 56 56
45 45 45 45 43 41 44 39 42 45 46 46 46 45 43 37 25 15 11 13 27 23 20 22 23 28 26 24 21 21 18 17 19 19 17 18 18 19 11 11 10 11 15 17 15 12 16 20 19 18 22 17 14 11 11 11 11 10 8 9 9 13 17 15 15 19 9 7 13 16 31 23 9 34 45 47 48 47 49 50 51 51 52 54 54 55 56 55
45 45 46 46 45 45 41 38 43 46 46 47 44 41 36 23 24 16 13 27 20 25 23 21 27 26 25 25 20 18 15 15 18 16 16 18 19 15 13 14 15 12 12 15 15 10 15 17 17 18 24 16 14 11 9 10 11 8 9 9 11 9 11 7 11 9 7 9 19 23 31 24 15 39 45 46 47 48 50 50 51 51 52 54 54 54 54 54
45 45 46 45 45 44 43 44 46 46 46 44 40 37 28 20 12 15 18 22 26 33 29 29 26 25 25 23 19 17 18 11 15 15 18 18 17 14 13 12 13 17 12 19 15 13 10 11 9 18 20 19 15 12 10 8 9 8 7 9 8 6 6 8 6 11 11 13 18 22 31 25 34 42 46 46 48 48 50 52 52 52 53 53 53 52 52 52
45 46 44 44 44 43 45 48 47 46 45 43 38 31 27 17 14 28 23 29 29 35 33 29 28 26 25 21 20 17 11 14 14 14 18 18 16 16 12 12 13 11 15 19 12 12 12 9 10 17 15 18 15 14 11 11 9 7 8 6 9 10 6 7 3 6 6 12 24 29 24 19 27 42 48 48 50 50 51 52 53 53 53 53 51 51 51 52
46 44 42 42 43 43 46 45 47 45 44 40 33 26 19 17 20 22 26 28 31 34 30 30 28 25 24 23 19 17 14 13 14 15 17 16 17 16 15 12 12 12 12 14 17 17 10 11 12 16 16 17 15 16 13 10 8 9 9 8 11 11 21 4 14 12 15 19 21 29 29 39 40 46 48 51 50 51 52 52 52 52 52 51 51 51 51 52
42 40 41 40 41 43 44 45 46 45 41 37 28 22 19 23 21 29 28 34 34 29 30 27 26 24 24 23 17 15 16 13 14 16 16 16 16 16 14 10 10 11 13 16 21 12 10 13 14 12 14 17 15 15 14 11 12 12 8 8 8 18 19 20 19 25 21 15 11 35 36 38 43 45 50 50 50 51 51 51 51 50 50 50 50 51 51 52
40 40 38 40 41 42 45 45 45 43 40 35 25 18 25 27 33 31 34 32 32 33 31 22 23 23 23 21 16 16 13 16 15 15 16 16 17 15 13 9 8 10 14 17 16 18 13 9 14 10 8 15 17 15 14 12 15 10 9 9 17 17 18 19 8 15 15 9 19 33 32 36 35 37 49 49 49 49 50 50 50 50 50 50 50 51 51 51
39 39 41 39 42 44 45 46 45 42 38 32 22 22 32 25 35 34 35 35 32 32 30 29 29 17 22 20 13 14 13 13 15 14 15 15 15 15 12 8 7 10 13 15 15 17 15 7 11 11 9 12 15 15 13 13 12 9 8 13 6 10 8 22 18 12 11 11 14 30 33 35 33 41 46 46 47 48 49 49 49 48 49 49 50 50 50 50
39 40 36 39 45 46 46 46 44 39 35 27 24 23 31 32 36 34 35 34 33 32 30 32 29 30 17 18 13 13 11 13 13 14 14 15 12 16 12 8 7 7 11 9 12 22 23 10 11 15 10 12 14 14 15 13 11 14 14 10 16 16 17 13 12 19 16 10 21 30 30 30 36 41 46 47 47 49 49 48 48 48 49 49 49 50 50 50
39 38 34 43 44 45 45 45 41 37 33 25 27 26 35 30 33 36 35 34 31 31 30 31 30 29 29 22 11 11 12 13 12 15 13 16 11 13 13 8 7 6 10 13 11 25 18 29 6 14 15 12 13 16 15 14 12 12 11 11 13 21 17 16 22 10 10 19 17 18 23 30 37 41 45 47 48 48 49 49 49 49 49 49 49 49 50 49
41 36 36 45 44 45 44 41 36 31 29 31 32 29 30 29 33 34 34 34 34 34 31 31 30 30 30 21 10 11 12 12 11 12 10 13 12 14 14 10 6 8 8 8 14 23 21 19 13 20 13 11 14 14 16 13 12 12 12 13 10 15 11 7 10 18 22 16 20 17 12 31 37 45 46 47 48 49 50 49 49 49 49 49 49 50 49 49
38 29 35 44 44 43 40 32 32 35 31 28 27 30 29 35 35 34 35 37 34 34 35 33 32 31 31 30 19 12 11 11 10 12 11 14 16 14 13 11 7 8 10 13 14 23 28 29 24 15 14 13 13 13 17 14 12 12 12 13 11 18 16 8 7 15 22 27 27 26 20 22 42 46 46 47 49 48 49 49 49 49 49 49 49 49 49 49
38 33 42 44 43 41 37 31 34 31 29 33 34 34 35 35 34 35 34 35 33 35 35 34 32 32 32 31 30 16 11 13 10 11 11 13 15 16 12 8 7 6 8 17 11 18 37 27 15 17 16 17 18 16 18 13 11 10 11 12 12 16 14 11 13 25 11 27 21 21 17 25 44 47 47 49 50 49 49 49 48 49 49 49 48 48 48 48
38 38 40 44 42 41 35 27 28 30 31 35 34 34 35 35 35 34 34 35 34 35 34 33 34 32 32 31 31 16 13 15 11 10 11 14 13 15 11 8 7 6 8 18 13 35 19 19 17 15 12 13 16 16 14 12 10 14 14 19 12 15 17 27 28 29 14 27 19 15 10 28 43 47 48 49 49 49 49 48 48 48 48 48 48 48 48 47
39 41 41 42 43 41 32 34 32 30 31 31 31 30 32 34 37 36 35 34 36 34 34 33 31 32 31 32 31 31 25 14 17 12 15 14 17 25 11 11 8 10 7 17 26 26 17 27 19 13 12 11 11 13 14 14 13 20 25 14 12 11 27 22 12 19 10 27 26 15 17 39 45 46 48 48 48 48 48 48 48 48 48 48 48 48 47 46
36 30 36 38 40 39 37 38 35 32 30 30 30 31 33 32 35 37 36 35 37 35 36 34 33 33 32 33 31 23 20 25 15 19 10 16 25 24 12 11 11 8 23 33 33 27 24 30 27 25 16 13 17 22 25 23 15 12 20 16 17 14 19 22 29 18 12 26 25 28 32 41 41 45 45 47 47 47 46 47 47 47 47 47 47 47 46 45
39 31 31 29 37 37 35 37 35 35 31 34 29 33 31 33 34 35 37 35 36 36 35 35 33 35 34 34 34 27 32 23 19 16 17 27 32 33 32 11 15 15 38 36 30 27 31 20 23 34 33 27 27 27 33 27 15 19 19 18 14 18 25 26 19 16 31 25 18 34 41 42 42 44 46 46 47 46 46 47 47 47 47 46 45 45 45 44
33 34 37 38 33 29 31 31 35 34 34 35 31 34 32 32 33 33 36 35 35 37 35 34 36 33 32 34 34 27 29 30 21 19 28 30 30 30 16 17 13 28 35 30 26 30 24 14 24 32 37 36 37 36 37 34 25 23 22 24 23 21 26 24 27 30 31 17 10 36 41 40 41 44 45 46 46 46 46 46 46 46 46 45 44 43 43 42
40 39 39 42 34 36 33 34 36 35 34 36 33 34 33 32 32 34 34 35 34 34 34 31 32 30 33 35 34 34 31 22 23 34 28 32 35 34 25 18 22 31 35 32 25 36 26 16 30 35 37 37 37 36 37 35 35 29 33 31 28 25 26 25 25 32 29 24 31 39 43 39 40 43 45 46 47 46 46 46 46 45 44 44 43 42 41 41
35 34 34 38 37 37 36 37 37 37 34 36 32 33 34 34 33 35 35 35 32 33 35 32 31 32 34 34 33 37 37 36 34 25 34 34 36 36 32 32 29 29 26 29 25 29 23 16 36 36 29 36 37 36 36 36 35 35 35 34 34 30 28 36 38 37 36 37 37 42 43 41 44 45 46 47 47 46 46 45 45 44 44 43 42 42 41 41
39 41 40 35 32 36 37 37 35 35 33 34 33 34 35 35 35 36 35 36 34 34 35 33 33 34 36 36 37 37 37 38 38 37 40 33 28 37 27 30 26 29 32 29 29 31 30 29 34 32 18 30 36 36 35 36 35 35 36 36 35 29 25 34 29 38 31 37 40 41 40 40 44 45 46 46 46 45 45 45 44 44 43 43 42 42 41 41
42 43 42 37 31 35 34 36 36 35 32 35 35 36 36 36 37 37 32 32 36 36 34 31 36 36 36 36 36 37 38 39 39 40 40 39 38 38 39 37 23 27 30 26 36 26 31 33 28 24 14 27 37 35 35 33 29 26 31 38 37 38 38 38 38 39 40 42 38 34 33 39 45 45 45 45 45 45 44 44 44 43 43 43 42 41 41 40